Pine Ridge, SD

10:58 AM MDT on May 27, 2018 (GMT -0600)
Pine Ridge

Weather History for KIEN - March, 2014

Change the Weather History Date:

Saturday, March 1, 2014

  Actual Average Record
Temperature  
Mean Temperature -2 °F 31 °F  
Max Temperature 6 °F 44 °F 66 °F (2008)
Min Temperature -11 °F 17 °F -11 °F (2014)
Degree Days  
Heating Degree Days 67 34  
Month to date heating degree days 67 34  
Since 1 July heating degree days 5549 5384  
Cooling Degree Days 0 0  
Month to date cooling degree days 0 0  
Year to date cooling degree days 0 0  
Moisture  
Dew Point -6 °F    
Average Humidity 76    
Maximum Humidity 87    
Minimum Humidity 65    
Precipitation  
Precipitation 0.14 in 0.01 in 0.14 in (2014)
Month to date precipitation 0.14 0.01  
Year to date precipitation 0.41 0.80  
Sea Level Pressure  
Sea Level Pressure 30.29 in    
Wind  
Wind Speed 9 mph (ENE)    
Max Wind Speed 15 mph    
Max Gust Speed 18 mph    
Visibility 3 miles    
Events Snow    
T = Trace of Precipitation, MM = Missing Value Source: NWS Daily Summary

Daily Weather History Graph

Daily Weather History Graph

Search for Another Location

Airport or City:

Astronomy

Mar. 01, 2014 Rise Set
Actual Time 6:25 AM MST 5:39 PM MST
Civil Twilight 5:57 AM MST 6:07 PM MST
Nautical Twilight 5:24 AM MST 6:40 PM MST
Astronomical Twilight 4:51 AM MST 7:13 PM MST
Moon 6:19 AM MST (3/1) 6:31 PM MST (3/1)
Length of Visible Light 12h 10m
Length of Day
11h 13m
New Moon, 0% of the Moon is Illuminated
Mar 1
New Moon
Mar 8
First Quarter
Mar 16
Full
Mar 23
Last Quarter
Mar 30
New

Hourly Weather History & Observations

Time (MST) Temp. Windchill Dew Point Humidity Pressure Visibility Wind Dir Wind Speed Gust Speed Precip Events Conditions
12:05 AM 6.8 °F -6.9 °F -0.4 °F 72% 30.09 in 2.5 mi NE 9.2 mph - 0.00 in Snow Light Snow
12:13 AM 6.8 °F -4.8 °F -0.4 °F 72% 30.10 in 4.0 mi NE 6.9 mph - 0.00 in Snow Light Snow
12:52 AM 6.1 °F -6.8 °F -0.0 °F 76% 30.28 in 3.0 mi NE 8.1 mph - 0.00 in Snow Light Snow
1:23 AM 5.0 °F -10.8 °F -0.4 °F 78% 30.09 in 2.5 mi NNE 11.5 mph - 0.00 in Snow Light Snow
1:33 AM 3.2 °F -11.3 °F -0.4 °F 85% 30.11 in 1.2 mi NNE 9.2 mph - 0.01 in Snow Light Snow
1:50 AM 3.2 °F -12.2 °F -0.4 °F 85% 30.09 in 0.8 mi NNE 10.4 mph - 0.01 in Snow Light Snow
1:52 AM 3.9 °F -11.3 °F -0.9 °F 80% 30.29 in 0.8 mi NE 10.4 mph - 0.01 in Snow Light Snow
2:09 AM 3.2 °F -10.3 °F -0.4 °F 85% 30.11 in 0.5 mi NE 8.1 mph - 0.01 in Snow Snow
2:18 AM 3.2 °F -10.3 °F -0.4 °F 85% 30.11 in 1.0 mi NNE 8.1 mph - 0.02 in Snow Light Snow
2:33 AM 3.2 °F -12.2 °F -2.2 °F 78% 30.11 in 1.5 mi NNE 10.4 mph - 0.02 in Snow Light Snow
2:52 AM 3.9 °F -12.2 °F -2.0 °F 76% 30.30 in 2.0 mi NNE 11.5 mph - 0.03 in Snow Light Snow
3:02 AM 3.2 °F -12.2 °F -2.2 °F 78% 30.11 in 3.0 mi NE 10.4 mph - 0.00 in Snow Light Snow
3:07 AM 3.2 °F -11.3 °F -2.2 °F 78% 30.11 in 1.8 mi NNE 9.2 mph - 0.00 in Snow Light Snow
3:25 AM 1.4 °F -11.3 °F -2.2 °F 85% 30.12 in 0.8 mi NNE 6.9 mph - 0.01 in Snow Light Snow
3:34 AM 1.4 °F -13.5 °F -2.2 °F 85% 30.13 in 2.0 mi NNE 9.2 mph - 0.01 in Snow Light Snow
3:50 AM 1.4 °F -11.3 °F -2.2 °F 85% 30.13 in 1.2 mi NE 6.9 mph - 0.01 in Snow Light Snow
3:52 AM 1.9 °F -9.2 °F -2.9 °F 80% 30.34 in 1.2 mi NNE 5.8 mph - 0.01 in Snow Light Snow
4:11 AM 1.4 °F -11.3 °F -2.2 °F 85% 30.14 in 1.0 mi NNE 6.9 mph - 0.01 in Snow Light Snow
4:38 AM 1.4 °F -12.5 °F -4.0 °F 78% 30.16 in 0.8 mi NE 8.1 mph - 0.02 in Snow Light Snow
4:52 AM 1.9 °F -11.8 °F -4.0 °F 76% 30.37 in 1.0 mi NE 8.1 mph - 0.03 in Snow Light Snow
5:09 AM 1.4 °F -14.5 °F -4.0 °F 78% 30.16 in 0.8 mi NE 10.4 mph - 0.00 in Snow Light Snow
5:26 AM 1.4 °F -9.9 °F -4.0 °F 78% 30.17 in 0.8 mi NE 5.8 mph - 0.01 in Snow Light Snow
5:38 AM 1.4 °F -8.3 °F -2.2 °F 85% 30.18 in 0.8 mi ENE 4.6 mph - 0.02 in Snow Light Snow
5:52 AM 1.9 °F -11.8 °F -2.9 °F 80% 30.39 in 0.8 mi NE 8.1 mph - 0.03 in Snow Light Snow
6:05 AM -0.4 °F -14.7 °F -5.8 °F 78% 30.16 in 1.0 mi ENE 8.1 mph - 0.01 in Snow Light Snow
6:30 AM -0.4 °F -14.7 °F -5.8 °F 78% 30.17 in 1.5 mi ENE 8.1 mph - 0.01 in Snow Light Snow
6:40 AM -0.4 °F -15.7 °F -5.8 °F 78% 30.19 in 2.5 mi ENE 9.2 mph - 0.01 in Snow Light Snow
6:46 AM -0.4 °F -16.7 °F -5.8 °F 78% 30.19 in 3.0 mi NE 10.4 mph - 0.01 in Snow Light Snow
6:52 AM -0.0 °F -15.3 °F -6.0 °F 76% 30.40 in 4.0 mi NE 9.2 mph - 0.01 in Snow Light Snow
7:40 AM -0.4 °F -15.7 °F -7.6 °F 72% 30.23 in 1.8 mi ENE 9.2 mph - 0.00 in Snow Light Snow
7:52 AM -0.0 °F -15.3 °F -7.1 °F 72% 30.45 in 1.2 mi ENE 9.2 mph - 0.00 in Snow Light Snow
8:10 AM -0.4 °F -17.6 °F -7.6 °F 72% 30.24 in 3.0 mi ENE 11.5 mph - 0.00 in Snow Light Snow
8:20 AM -0.4 °F -17.6 °F -7.6 °F 72% 30.25 in 7.0 mi East 11.5 mph - 0.00 in Snow Light Snow
8:52 AM -0.9 °F -16.4 °F -8.0 °F 72% 30.48 in 6.0 mi ENE 9.2 mph - 0.00 in Snow Light Snow
9:52 AM -0.9 °F -18.3 °F -8.0 °F 72% 30.44 in 3.0 mi East 11.5 mph - 0.00 in Snow Light Snow
9:57 AM -0.4 °F -17.6 °F -7.6 °F 72% 30.21 in 1.8 mi ENE 11.5 mph - 0.00 in Snow Light Snow
10:14 AM -0.4 °F -13.4 °F -7.6 °F 72% 30.27 in 1.8 mi East 6.9 mph - 0.00 in Snow Light Snow
10:21 AM -0.4 °F -13.4 °F -5.8 °F 78% 30.28 in 2.0 mi ENE 6.9 mph - 0.00 in Snow Light Snow
10:52 AM -0.0 °F -16.3 °F -7.1 °F 72% 30.45 in 3.0 mi East 10.4 mph - 0.00 in Snow Light Snow
10:59 AM -0.4 °F -15.7 °F -7.6 °F 72% 30.26 in 3.0 mi East 9.2 mph - N/A   Haze
11:52 AM -0.0 °F -16.3 °F -9.0 °F 66% 30.48 in 9.0 mi ENE 10.4 mph - N/A   Overcast
12:38 PM -0.4 °F -18.4 °F -9.4 °F 66% 30.24 in 1.8 mi East 12.7 mph - 0.01 in Snow Light Snow
12:47 PM -2.2 °F -18.0 °F -9.4 °F 71% 30.24 in 0.5 mi ENE 9.2 mph - 0.01 in Snow Snow
12:52 PM -0.9 °F -16.4 °F -8.0 °F 72% 30.47 in 0.5 mi ENE 9.2 mph - 0.01 in Snow Snow
1:10 PM -0.4 °F -17.6 °F -9.4 °F 66% 30.25 in 1.2 mi East 11.5 mph - 0.00 in Snow Light Snow
1:17 PM -0.4 °F -16.7 °F -9.4 °F 66% 30.25 in 2.0 mi East 10.4 mph - 0.00 in Snow Light Snow
1:27 PM -0.4 °F -16.7 °F -9.4 °F 66% 30.24 in 3.0 mi East 10.4 mph - 0.00 in Snow Light Snow
1:52 PM -2.0 °F -20.5 °F -9.9 °F 69% 30.46 in 8.0 mi East 12.7 mph - 0.00 in   Overcast
2:52 PM -2.0 °F -18.7 °F -9.9 °F 69% 30.48 in 10.0 mi ENE 10.4 mph - N/A   Overcast
3:52 PM -2.0 °F -18.7 °F -11.0 °F 66% 30.49 in 10.0 mi East 10.4 mph - N/A   Overcast
4:52 PM -2.9 °F -19.8 °F -11.9 °F 65% 30.51 in 10.0 mi East 10.4 mph - N/A   Overcast
5:52 PM -4.0 °F -22.1 °F -11.9 °F 69% 30.52 in 7.0 mi East 11.5 mph - N/A   Overcast
6:52 PM -5.1 °F -20.4 °F -11.9 °F 72% 30.55 in 2.5 mi East 8.1 mph - 0.00 in Snow Light Snow
7:00 PM -5.8 °F -19.9 °F -11.2 °F 77% 30.29 in 1.8 mi East 6.9 mph - 0.00 in Snow Light Snow
7:28 PM -5.8 °F -21.2 °F -11.2 °F 77% 30.30 in 3.0 mi East 8.1 mph - 0.00 in Snow Light Snow
7:35 PM -5.8 °F -18.4 °F -11.2 °F 77% 30.30 in 5.0 mi East 5.8 mph - 0.00 in Snow Light Snow
7:52 PM -5.1 °F -20.4 °F -11.9 °F 72% 30.57 in 4.0 mi East 8.1 mph - 0.00 in Snow Light Snow
8:52 PM -8.0 °F -21.0 °F -14.1 °F 75% 30.58 in 9.0 mi ENE 5.8 mph - 0.00 in   Mostly Cloudy
9:52 PM -11.0 °F -24.6 °F -17.0 °F 75% 30.58 in 10.0 mi ENE 5.8 mph - 0.01 in   Clear
10:52 PM -8.0 °F -19.2 °F -13.0 °F 79% 30.58 in 10.0 mi ENE 4.6 mph - N/A   Overcast
11:52 PM -5.1 °F -17.6 °F -11.9 °F 72% 30.56 in 10.0 mi ENE 5.8 mph - N/A   Overcast